Location: Byhalia Creek
(34.8270°N, 89.8040°W)
Time: 20:56:24
(UTC+00:00)

OAO 3 Copernicus - Pass Details

Date: 22 April 2026
Orbit: 689 x 698 km, 35.0° (Epoch: 21 May)

Event Time Altitude Azimuth Distance (km) Brightness Sun altitude
Rises 02:17:48 0° 277° (W) 3,053 8.8 -19.9°
Reaches altitude 10° 02:20:12 10° 277° (W) 2,134 7.7 -20.3°
Maximum altitude 02:25:12 82° 191° (S) 697 4.2 -21.1°
Enters shadow 02:26:22 53° 112° (ESE) 838 4.3 -21.3°
